When you browse on this site, cookies collect data to enhance your experience and personalize the content and advertising you see.
Visit our Privacy Policy to learn more. By continuing to use the site, you agree to this use of cookies and data.
  • In Hungary
  • List of Countries
  • For 7 days
  • Water Temperature
  • Weather Map
  • News
  • Weather Widgets
  • user-avatar
    Login

    Hourly Weather Valenzano

    Today, 8 April, Wednesday

    Time Temperature Precipitation Wind Pressure Humidity
    00:00 +11°C° 0 mm 3 mps 761 mmHg 72%
    01:00 +11°C° 0 mm 3 mps 761 mmHg 74%
    02:00 +10°C° 0 mm 3 mps 761 mmHg 75%
    03:00 +10°C° 0 mm 3 mps 761 mmHg 76%
    04:00 +10°C° 0 mm 3 mps 761 mmHg 77%
    05:00 +11°C° 0 mm 3 mps 761 mmHg 73%
    06:00 +11°C° 0 mm 3 mps 761 mmHg 70%
    07:00 +12°C° 0 mm 3 mps 761 mmHg 66%
    08:00 +13°C° 0 mm 3 mps 761 mmHg 60%
    09:00 +14°C° 0 mm 3 mps 761 mmHg 54%
    10:00 +16°C° 0 mm 3 mps 761 mmHg 48%
    11:00 +17°C° 0 mm 3 mps 761 mmHg 46%
    12:00 +18°C° 0 mm 3 mps 761 mmHg 43%
    13:00 +18°C° 0 mm 2 mps 760 mmHg 41%
    14:00 +18°C° 0 mm 2 mps 760 mmHg 42%
    15:00 +18°C° 0 mm 2 mps 760 mmHg 43%
    16:00 +17°C° 0 mm 2 mps 759 mmHg 44%
    17:00 +16°C° 0 mm 2 mps 759 mmHg 48%
    18:00 +14°C° 0 mm 2 mps 759 mmHg 52%
    19:00 +13°C° 0 mm 1 mps 759 mmHg 56%
    20:00 +13°C° 0 mm 2 mps 759 mmHg 57%
    21:00 +12°C° 0 mm 2 mps 759 mmHg 57%
    22:00 +12°C° 0 mm 2 mps 759 mmHg 58%
    23:00 +12°C° 0 mm 2 mps 759 mmHg 64%

    Tomorrow, 9 April, Thursday

    Time Temperature Precipitation Wind Pressure Humidity
    00:00 +10°C° 0 mm 3 mps 759 mmHg 69%
    01:00 +10°C° 0 mm 3 mps 759 mmHg 75%
    02:00 +10°C° 0 mm 3 mps 759 mmHg 74%
    03:00 +10°C° 0 mm 3 mps 758 mmHg 74%
    04:00 +9°C° 0 mm 3 mps 758 mmHg 74%
    05:00 +10°C° 0 mm 3 mps 758 mmHg 71%
    06:00 +11°C° 0 mm 3 mps 758 mmHg 68%
    07:00 +11°C° 0 mm 3 mps 758 mmHg 66%
    08:00 +13°C° 0 mm 4 mps 758 mmHg 59%
    09:00 +15°C° 0 mm 4 mps 759 mmHg 51%
    10:00 +17°C° 0 mm 4 mps 759 mmHg 44%
    11:00 +18°C° 0 mm 4 mps 759 mmHg 43%
    12:00 +18°C° 0 mm 4 mps 758 mmHg 41%
    13:00 +19°C° 0 mm 4 mps 758 mmHg 40%
    14:00 +19°C° 0 mm 4 mps 758 mmHg 42%
    15:00 +18°C° 0 mm 4 mps 758 mmHg 44%
    16:00 +17°C° 0 mm 5 mps 758 mmHg 47%
    17:00 +15°C° 0 mm 4 mps 758 mmHg 53%
    18:00 +14°C° 0 mm 4 mps 757 mmHg 60%
    19:00 +12°C° 0 mm 3 mps 757 mmHg 66%
    20:00 +12°C° 0 mm 3 mps 758 mmHg 66%
    21:00 +12°C° 0 mm 3 mps 758 mmHg 66%
    22:00 +12°C° 0 mm 3 mps 758 mmHg 65%
    23:00 +11°C° 0 mm 3 mps 758 mmHg 63%

    Day after tomorrow, 10 April, Friday

    Time Temperature Precipitation Wind Pressure Humidity
    00:00 +11°C° 0 mm 4 mps 758 mmHg 60%
    01:00 +11°C° 0 mm 4 mps 758 mmHg 57%
    02:00 +11°C° 0 mm 4 mps 758 mmHg 54%
    03:00 +10°C° 0 mm 4 mps 757 mmHg 51%
    04:00 +10°C° 0 mm 4 mps 757 mmHg 48%
    05:00 +10°C° 0 mm 5 mps 757 mmHg 47%
    06:00 +12°C° 0 mm 5 mps 758 mmHg 46%
    07:00 +12°C° 0 mm 5 mps 758 mmHg 45%
    08:00 +14°C° 0 mm 5 mps 758 mmHg 42%
    09:00 +16°C° 0 mm 5 mps 758 mmHg 39%
    10:00 +19°C° 0 mm 6 mps 758 mmHg 36%
    11:00 +19°C° 0 mm 6 mps 758 mmHg 37%
    12:00 +20°C° 0 mm 5 mps 758 mmHg 39%
    13:00 +20°C° 0 mm 5 mps 758 mmHg 41%
    14:00 +20°C° 0 mm 5 mps 757 mmHg 43%
    15:00 +20°C° 0 mm 5 mps 757 mmHg 45%
    16:00 +19°C° 0 mm 5 mps 757 mmHg 47%
    17:00 +17°C° 0 mm 5 mps 757 mmHg 51%
    18:00 +15°C° 0 mm 4 mps 757 mmHg 56%
    19:00 +14°C° 0 mm 3 mps 757 mmHg 61%
    20:00 +13°C° 0 mm 4 mps 757 mmHg 61%
    21:00 +13°C° 0 mm 4 mps 757 mmHg 61%
    22:00 +12°C° 0 mm 4 mps 757 mmHg 61%
    23:00 +12°C° 0 mm 4 mps 757 mmHg 59%

    11 April, Saturday

    Time Temperature Precipitation Wind Pressure Humidity
    00:00 +12°C° 0 mm 4 mps 757 mmHg 57%
    01:00 +12°C° 0 mm 4 mps 757 mmHg 56%
    02:00 +12°C° 0 mm 4 mps 757 mmHg 55%
    03:00 +12°C° 0 mm 4 mps 757 mmHg 53%
    04:00 +12°C° 0 mm 4 mps 757 mmHg 52%
    05:00 +13°C° 0 mm 4 mps 757 mmHg 53%
    06:00 +13°C° 0 mm 4 mps 757 mmHg 54%
    07:00 +14°C° 0 mm 4 mps 757 mmHg 56%
    08:00 +17°C° 0 mm 4 mps 758 mmHg 53%
    09:00 +18°C° 0 mm 4 mps 758 mmHg 51%
    10:00 +20°C° 0 mm 4 mps 758 mmHg 48%
    11:00 +20°C° 0 mm 4 mps 758 mmHg 47%
    12:00 +21°C° 0 mm 4 mps 758 mmHg 46%
    13:00 +22°C° 0 mm 3 mps 758 mmHg 45%
    14:00 +21°C° 0 mm 3 mps 758 mmHg 45%
    15:00 +21°C° 0 mm 3 mps 757 mmHg 46%
    16:00 +21°C° 0 mm 3 mps 757 mmHg 47%
    17:00 +19°C° 0 mm 3 mps 757 mmHg 52%
    18:00 +18°C° 0 mm 3 mps 757 mmHg 58%
    19:00 +16°C° 0 mm 2 mps 757 mmHg 64%
    20:00 +15°C° 0 mm 2 mps 757 mmHg 66%
    21:00 +15°C° 0 mm 2 mps 758 mmHg 68%
    22:00 +14°C° 0 mm 2 mps 758 mmHg 70%
    23:00 +14°C° 0 mm 2 mps 758 mmHg 71%

    12 April, Sunday

    Time Temperature Precipitation Wind Pressure Humidity
    00:00 +14°C° 0 mm 2 mps 758 mmHg 71%
    01:00 +14°C° 0 mm 2 mps 758 mmHg 71%
    02:00 +13°C° 0 mm 2 mps 758 mmHg 70%
    03:00 +13°C° 0 mm 2 mps 758 mmHg 69%
    04:00 +13°C° 0 mm 2 mps 757 mmHg 68%
    05:00 +14°C° 0 mm 1 mps 757 mmHg 64%
    06:00 +15°C° 0 mm 1 mps 757 mmHg 61%
    07:00 +16°C° 0 mm 1 mps 758 mmHg 57%
    08:00 +18°C° 0 mm 1 mps 758 mmHg 51%
    09:00 +20°C° 0 mm 1 mps 758 mmHg 46%
    10:00 +22°C° 0 mm 1 mps 758 mmHg 40%
    11:00 +22°C° 0 mm 1 mps 758 mmHg 40%
    12:00 +23°C° 0 mm 2 mps 757 mmHg 39%
    13:00 +23°C° 0 mm 2 mps 757 mmHg 38%
    14:00 +22°C° 0 mm 3 mps 757 mmHg 41%
    15:00 +21°C° 0 mm 3 mps 757 mmHg 44%
    16:00 +21°C° 0 mm 4 mps 756 mmHg 47%
    17:00 +19°C° 0 mm 4 mps 756 mmHg 52%
    18:00 +18°C° 0 mm 4 mps 756 mmHg 58%
    19:00 +15°C° 0 mm 4 mps 755 mmHg 63%
    20:00 +16°C° 0 mm 3 mps 755 mmHg 65%
    21:00 +16°C° 0 mm 3 mps 755 mmHg 66%
    22:00 +14°C° 0 mm 3 mps 755 mmHg 68%
    23:00 +14°C° 0 mm 3 mps 755 mmHg 70%

    13 April, Monday

    Time Temperature Precipitation Wind Pressure Humidity
    00:00 +14°C° 0 mm 3 mps 755 mmHg 72%
    01:00 +15°C° 0 mm 2 mps 755 mmHg 74%
    02:00 +15°C° 0 mm 2 mps 755 mmHg 75%
    03:00 +15°C° 0 mm 2 mps 754 mmHg 76%
    04:00 +14°C° 0 mm 1 mps 754 mmHg 77%
    05:00 +15°C° 0 mm 1 mps 754 mmHg 76%
    06:00 +15°C° 0 mm 1 mps 754 mmHg 75%
    07:00 +16°C° 0 mm 1 mps 754 mmHg 74%
    08:00 +17°C° 0 mm 2 mps 754 mmHg 67%
    09:00 +19°C° 0 mm 2 mps 754 mmHg 60%
    10:00 +20°C° 0 mm 3 mps 754 mmHg 53%
    11:00 +21°C° 0 mm 3 mps 754 mmHg 49%
    12:00 +21°C° 0 mm 4 mps 754 mmHg 46%
    13:00 +22°C° 0 mm 4 mps 754 mmHg 42%
    14:00 +21°C° 0 mm 4 mps 754 mmHg 44%
    15:00 +21°C° 0 mm 3 mps 754 mmHg 47%
    16:00 +21°C° 0 mm 3 mps 753 mmHg 49%
    17:00 +19°C° 0 mm 3 mps 753 mmHg 54%
    18:00 +18°C° 0 mm 3 mps 753 mmHg 60%
    19:00 +15°C° 0 mm 4 mps 753 mmHg 65%
    20:00 +15°C° 0 mm 4 mps 753 mmHg 65%
    21:00 +14°C° 0 mm 4 mps 753 mmHg 66%
    22:00 +14°C° 0 mm 4 mps 753 mmHg 67%
    23:00 +13°C° 0 mm 3 mps 753 mmHg 69%
    Show more